Zurück zum Katalog

STARLINK-31716

AktivKommunikationVLEO
NORAD 59377·PAYLOAD·🇺🇸 United States

Gestartet Apr 2, 2024 von Vandenberg Space Force Base

Loading…

Nächste Überflüge (nächste 24 Stunden)

TLE

AktuellSource: CelesTrak SupGP

Epoche: Sep 14, 2026, 22:41 UTC

1 59377C 24062D   26257.94562500  .00025716  00000+0  75977-3 0  2573
2 59377  53.1601  47.4735 0001338  80.4835 111.5593 15.34377847    17

Verfolge STARLINK-31716 in Echtzeit mit AllMySat

Download on the App Store